Regional Weather Roundup
Issued by NWS

Home | Current Version | Previous Version | Text Only | Print | Product List | Glossary On
Versions: 1 2 3 4 5 6 7 8 9 10 11 12 13 14 15 16 17 18 19 20 21 22 23 24 25 26 27 28 29 30 31 32 33 34 35 36 37 38 39 40 41 42 43 44 45 46 47 48 49 50
000
ASUS43 KOAX 051602
RWRNE

WEATHER ROUNDUP FOR NEBRASKA
NATIONAL WEATHER SERVICE OMAHA NE
1000 AM CST MON DEC 05 2016

NOTES: SATELLITE DATA IS BEING USED TO AUGMENT CLOUD COVER ABOVE
       12000 FEET.
       "FAIR" INDICATES FEW OR NO CLOUDS BELOW 12,000 FEET WITH NO
       SIGNIFICANT WEATHER AND/OR OBSTRUCTIONS TO VISIBILITY.

  * THESE STATIONS DO NOT REPORT WEATHER SUCH AS RAIN...SNOW OR FOG.

NEZ001>004-019>022-054>056-051700-
NEBRASKA PANHANDLE

CITY           SKY/WX    TMP DP  RH WIND       PRES   REMARKS
SCOTTSBLUFF    SUNNY     47  23  38 W12       29.55S
KIMBALL        SUNNY     46  28  49 W7        29.59R
$$

NEZ057>060-069>072-079>082-051700-
SOUTHWEST NEBRASKA

CITY           SKY/WX    TMP DP  RH WIND       PRES   REMARKS
NORTH PLATTE   CLOUDY    36  22  56 S5        29.60R WCI  32
LEXINGTON      CLOUDY    37  27  66 CALM      29.60S
OGALLALA       CLOUDY    37  22  53 W8        29.59S WCI  31
$$

NEZ005>010-023>029-035>040-094-051700-
NORTH CENTRAL NEBRASKA

CITY           SKY/WX    TMP DP  RH WIND       PRES   REMARKS
AINSWORTH      MOSUNNY   49  27  42 W12       29.48F
O`NEILL        CLOUDY    40  25  55 S12       29.52S WCI  33
ORD            CLOUDY    38  24  57 S9        29.57F WCI  31
$$

NEZ041-046>049-061>064-073>077-083>087-051700-
SOUTH CENTRAL NEBRASKA

CITY           SKY/WX    TMP DP  RH WIND       PRES   REMARKS
GRAND ISLAND   MOSUNNY   39  29  67 SW13      29.64R WCI  31
AURORA         MOSUNNY   37  30  75 S12       29.64R WCI  29
HASTINGS       CLOUDY    38  28  67 S12       29.64S WCI  30
HEBRON         SUNNY     38  30  74 S14G20    29.68F WCI  29
HOLDREGE       CLOUDY    38  27  66 S7        29.60F WCI  32
KEARNEY *      CLOUDY    37  27  65 S8        29.61S WCI  31
YORK           CLOUDY    39  32  75 S14       29.66S WCI  31
$$

NEZ011>018-030>034-042>045-051700-
NORTHEAST NEBRASKA

CITY           SKY/WX    TMP DP  RH WIND       PRES   REMARKS
NORFOLK        FAIR      38  28  67 S20G29    29.60F WCI  28
ALBION         FAIR      38  29  69 S13       29.61S WCI  30
BLAIR          FAIR      39  32  76 S20G25    29.71S WCI  29
FREMONT        FAIR      37  31  77 SE9       29.70F WCI  31
TEKAMAH        FAIR      36  31  82 S14       29.70F WCI  27
WAYNE          FAIR      39  31  71 S17       29.60F WCI  30
$$

NEZ050>053-065>068-078-088>093-051700-
SOUTHEAST NEBRASKA

CITY           SKY/WX    TMP DP  RH WIND       PRES   REMARKS
LINCOLN        CLOUDY    39  31  72 S16       29.71F WCI  30
OMAHA EPPLEY   PTSUNNY   41  32  70 S17       29.74F
BEATRICE       SUNNY     43  34  70 S12       29.73S
FALLS CITY     SUNNY     41  36  82 S14       29.80F
NEBRASKA CITY  SUNNY     40  33  76 S16       29.77S WCI  31
PLATTSMOUTH    SUNNY     40  32  73 S12       29.76F WCI  33
$$

NEZ044-045-051>053-067-051700-
OMAHA AREA

CITY           SKY/WX    TMP DP  RH WIND       PRES   REMARKS
OMAHA EPPLEY   PTSUNNY   41  32  70 S17       29.74F
BLAIR          FAIR      39  32  76 S20G25    29.71S WCI  29
FREMONT        FAIR      37  31  77 SE9       29.70F WCI  31
MILLARD        FAIR      38  32  77 SE10      29.75S WCI  32
OFFUTT AFB     CLOUDY    39  37  93 S15       29.75F WCI  30
PLATTSMOUTH    SUNNY     40  32  73 S12       29.76F WCI  33
WAHOO          FAIR      37  31  79 S14       29.70F WCI  28
$$




USA.gov is the U.S. government's official web portal to all federal, state and local government web resources and services.